TimeHST,TemperatureF,Dew PointF,Humidity,Sea Level PressureIn,VisibilityMPH,Wind Direction,Wind SpeedMPH,Gust SpeedMPH,PrecipitationIn,Events,Conditions,WindDirDegrees,DateUTC
12:53 AM,72.0,46.0,40,29.99,10.0,NNE,18.4,-,N/A,,Clear,30,2014-01-07 10:53:00
1:53 AM,68.0,46.9,47,29.99,10.0,NNE,12.7,-,N/A,,Clear,20,2014-01-07 11:53:00
2:53 AM,66.0,48.9,54,29.98,10.0,NNE,13.8,-,N/A,,Clear,20,2014-01-07 12:53:00
3:53 AM,70.0,50.0,49,29.99,10.0,NE,15.0,-,N/A,,Clear,50,2014-01-07 13:53:00
4:53 AM,69.1,48.9,49,29.99,10.0,NE,13.8,-,N/A,,Clear,40,2014-01-07 14:53:00
5:53 AM,69.1,46.0,44,29.99,10.0,NE,11.5,-,N/A,,Clear,50,2014-01-07 15:53:00
6:53 AM,71.1,45.0,39,30.01,10.0,NE,18.4,24.2,N/A,,Clear,40,2014-01-07 16:53:00
7:53 AM,72.0,48.0,43,30.02,10.0,NE,25.3,-,N/A,,Clear,40,2014-01-07 17:53:00
8:53 AM,75.0,42.1,31,30.04,10.0,North,19.6,27.6,N/A,,Clear,360,2014-01-07 18:53:00
9:53 AM,80.1,42.1,26,30.04,10.0,North,23.0,27.6,N/A,,Clear,10,2014-01-07 19:53:00
10:53 AM,82.0,39.9,22,30.04,10.0,North,26.5,32.2,N/A,,Clear,360,2014-01-07 20:53:00
11:53 AM,84.0,52.0,33,30.02,10.0,North,25.3,-,N/A,,Clear,360,2014-01-07 21:53:00
12:53 PM,84.0,50.0,31,29.98,-9999.0,North,21.9,28.8,N/A,,Clear,10,2014-01-07 22:53:00
1:53 PM,84.9,52.0,32,29.95,10.0,North,19.6,-,N/A,,Clear,10,2014-01-07 23:53:00
2:53 PM,82.0,59.0,45,29.94,10.0,North,23.0,-,N/A,,Clear,350,2014-01-08 00:53:00
3:53 PM,81.0,59.0,47,29.94,10.0,North,25.3,33.4,N/A,,Mostly Cloudy,360,2014-01-08 01:53:00
4:53 PM,78.1,61.0,56,29.96,10.0,North,24.2,34.5,N/A,,Clear,360,2014-01-08 02:53:00
5:53 PM,75.9,61.0,60,29.98,10.0,North,23.0,32.2,N/A,,Clear,10,2014-01-08 03:53:00
6:53 PM,73.9,57.9,57,29.99,10.0,North,19.6,27.6,N/A,,Clear,10,2014-01-08 04:53:00
7:53 PM,73.0,57.9,59,30.01,10.0,NNE,21.9,28.8,N/A,,Clear,20,2014-01-08 05:53:00
8:53 PM,72.0,55.9,57,30.01,10.0,NE,16.1,27.6,N/A,,Clear,40,2014-01-08 06:53:00
9:53 PM,71.1,55.0,57,30.01,10.0,North,24.2,29.9,N/A,,Clear,10,2014-01-08 07:53:00
10:53 PM,71.1,52.0,51,30.02,10.0,NE,11.5,-,N/A,,Clear,40,2014-01-08 08:53:00
11:53 PM,71.1,53.1,53,30.00,10.0,NNE,24.2,-,N/A,,Clear,30,2014-01-08 09:53:00